[[{"header":{"parameterUnit":"m.s-1","parameterCategory":1,"la1":30.2992,"la2":30.254,"lo1":-89.0895,"lo2":-89.0443,"dy":0.0025,"dx":0.0025,"nx":19,"ny":19,"refTime":"2026-04-30T09:00:00:Z","depth":0,"parameterNumber":2,"parameterNumberName":"U-component_of_WINDS"},"data":[0,0,0,3.3158,3.3165,3.3493,3.3495,3.3895,3.3898,0,0,0,0,0,0,0,0,0,0,0,3.305,3.3053,3.3158,3.3166,3.3493,3.3495,3.3894,3.3898,0,0,0,0,0,0,0,0,0,0,0,3.3049,3.3052,3.3055,3.3167,3.3493,3.3495,3.3894,3.3653,0,0,0,0,0,0,0,0,0,0,3.3337,3.3227,3.3051,3.3055,3.3169,3.3493,3.3495,3.3642,3.3668,3.3738,0,3.3799,0,3.3855,3.3924,3.3925,0,0,0,3.3174,3.3205,3.3304,3.3055,3.3172,3.3492,3.3348,3.3656,3.3686,3.3773,3.3805,3.382,3.3862,3.3926,3.3928,3.4309,3.431,0,0,3.3156,3.3103,3.3283,3.3322,3.3271,3.3337,3.3358,3.3675,3.3705,3.3806,3.383,3.3868,3.3929,3.3932,3.4308,3.4309,0,0,0,3.3098,3.309,3.3181,3.3305,3.3366,3.3346,3.337,3.3691,3.3725,3.3834,3.3873,3.3931,3.3936,3.4306,3.4308,3.4325,0,0,0,3.3088,3.3057,3.3173,3.3144,3.336,3.3533,3.3379,3.3703,3.3741,3.3871,3.3931,3.394,3.4305,3.4307,3.4322,3.4341,0,0,0,3.3033,3.305,3.3094,3.314,3.328,3.3529,3.3582,3.3713,3.3764,3.3926,3.3941,3.4304,3.4307,3.4318,3.4336,3.4425,0,0,0,3.2958,3.3105,3.3093,3.3273,3.3277,3.3538,3.358,3.3777,3.3918,3.3933,3.4305,3.4308,3.4317,3.4333,3.4421,3.4489,3.4512,0,0,3.3114,3.3122,3.3232,3.3231,3.348,3.3492,3.3744,3.3923,3.3986,3.4197,3.4208,3.4323,3.4336,3.4424,3.4667,3.4685,0,0,0,3.3263,3.3341,3.3418,3.355,3.369,3.3811,3.3957,3.4023,3.4205,3.4084,3.4382,3.4391,3.4445,3.4479,3.4495,3.4544,3.4322,3.4322,3.4322,3.3407,3.348,3.3666,3.3779,3.3906,3.4055,3.4164,3.4278,3.4316,3.4385,3.4447,3.4586,3.4624,3.4636,3.4686,3.4491,3.4491,3.4491,3.4491,3.364,3.3761,3.3807,3.4004,3.408,3.4246,3.4395,3.4416,3.458,3.4545,3.4596,3.4549,3.4654,3.4702,3.4493,3.4493,3.4492,3.4492,3.4492,3.3741,3.3811,3.389,3.4087,3.4231,3.4341,3.4496,3.4561,3.4623,3.4674,3.4746,3.4746,3.4752,3.4704,3.4705,3.4705,3.4706,3.4706,3.4706,3.3813,3.3901,3.4024,3.4186,3.4278,3.4408,3.4559,3.4652,3.4771,3.4806,3.4807,3.4836,3.4652,3.4603,3.4714,3.4713,3.4712,3.4711,3.4711,3.4018,3.3982,3.4172,3.4265,3.4459,3.4597,3.4679,3.4862,3.4948,3.5022,3.5042,3.4896,3.4908,3.4896,3.4856,3.5026,3.5026,3.5027,3.5027,3.4101,3.4114,3.4323,3.4467,3.4616,3.4708,3.492,3.5039,3.5156,3.5214,3.5199,3.5152,3.5137,3.5158,3.5141,3.5104,3.5334,3.5334,3.5334,3.4231,3.4261,3.4429,3.4543,3.47,3.4832,3.5033,3.5195,3.5321,3.5348,3.526,3.5247,3.5172,3.5144,3.5166,3.5137,3.5071,0,0]},{"header":{"parameterUnit":"m.s-1","parameterCategory":1,"la1":30.2992,"la2":30.254,"lo1":-89.0895,"lo2":-89.0443,"dy":0.0025,"dx":0.0025,"nx":19,"ny":19,"refTime":"2026-04-30T09:00:00:Z","depth":0,"parameterNumber":3,"parameterNumberName":"V-component_of_WINDS"},"data":[0,0,0,1.1714,1.1721,1.2062,1.2063,1.2496,1.25,0,0,0,0,0,0,0,0,0,0,0,1.1607,1.1609,1.1714,1.1722,1.2061,1.2063,1.2495,1.25,0,0,0,0,0,0,0,0,0,0,0,1.1606,1.1609,1.1612,1.1723,1.2061,1.2063,1.2494,1.224,0,0,0,0,0,0,0,0,0,0,1.191,1.1804,1.1608,1.1612,1.1725,1.2061,1.2063,1.2228,1.2256,1.2339,0,1.2407,0,1.246,1.2528,1.253,0,0,0,1.1728,1.178,1.1877,1.1613,1.1728,1.206,1.191,1.2244,1.2275,1.2376,1.2413,1.243,1.2467,1.2531,1.2533,1.2981,1.2983,0,0,1.171,1.1666,1.1855,1.1897,1.1838,1.1899,1.1921,1.2263,1.2302,1.2415,1.244,1.2474,1.2534,1.2537,1.2979,1.2981,0,0,0,1.1651,1.1653,1.1741,1.1879,1.194,1.1909,1.1934,1.2287,1.2319,1.2445,1.2479,1.2536,1.2541,1.2977,1.298,1.3026,0,0,0,1.164,1.1619,1.1733,1.171,1.1933,1.2117,1.195,1.2296,1.2336,1.2477,1.2536,1.2546,1.2975,1.2979,1.302,1.3057,0,0,0,1.1587,1.1612,1.1659,1.1707,1.185,1.2112,1.2164,1.2305,1.2357,1.253,1.2547,1.2974,1.2978,1.3016,1.3049,1.3164,0,0,0,1.1519,1.1696,1.1658,1.187,1.1847,1.2135,1.2163,1.2381,1.2534,1.2538,1.2976,1.298,1.3014,1.3044,1.3158,1.3255,1.3289,0,0,1.1719,1.1719,1.1847,1.1823,1.2106,1.2087,1.2379,1.2564,1.2623,1.286,1.2871,1.3022,1.3049,1.3163,1.3493,1.352,0,0,0,1.1896,1.1988,1.2072,1.2214,1.2355,1.2482,1.2624,1.2693,1.2895,1.2733,1.3094,1.3111,1.318,1.3229,1.3252,1.3316,1.2999,1.2998,1.2998,1.212,1.2181,1.2398,1.25,1.2637,1.2782,1.2901,1.3019,1.3044,1.3128,1.32,1.3392,1.3447,1.3465,1.353,1.3252,1.3253,1.3253,1.3253,1.2422,1.2563,1.2587,1.2806,1.2871,1.3058,1.3205,1.3215,1.3403,1.3343,1.3407,1.334,1.3492,1.3554,1.3257,1.3256,1.3256,1.3255,1.3255,1.2579,1.2657,1.2733,1.2944,1.3101,1.3199,1.3376,1.343,1.3482,1.3545,1.3629,1.3629,1.3638,1.358,1.358,1.3581,1.3582,1.3582,1.3583,1.2713,1.2797,1.2938,1.3101,1.3199,1.3335,1.3481,1.3581,1.3707,1.3732,1.3733,1.3752,1.3493,1.3429,1.3594,1.3592,1.359,1.3589,1.3588,1.3004,1.2946,1.3162,1.326,1.3457,1.3611,1.3674,1.3873,1.3964,1.405,1.4054,1.3852,1.3858,1.3841,1.3789,1.4036,1.4036,1.4036,1.4037,1.314,1.3145,1.3379,1.3532,1.3689,1.3767,1.4016,1.4131,1.4242,1.4303,1.4274,1.4208,1.4187,1.4207,1.4181,1.4134,1.4463,1.4464,1.4464,1.3324,1.3347,1.3546,1.3648,1.3806,1.3942,1.4178,1.4358,1.4472,1.4483,1.4353,1.4335,1.4229,1.4191,1.4204,1.4162,1.4076,0,0]}]]